User: anonymous   Login
Location: Durham
(54.7770°N, 1.5720°W)
Time: 22:11:07
(UTC+01:00)
Language:

ISS - Orbit

View from above orbital plane
View from above orbital plane
View from above satellite
View from above satellite

Ground track
Ground track

The orbit data is extracted from the following two-line orbital elements,

1 25544U 98067A   16209.53111906  .00001358  00000-0  27048-4 0  9996
2 25544  51.6435 216.7349 0002214  83.5560  59.4543 15.54887763 11268
Epoch (UTC): 27 July 2016 12:44:48
Eccentricity: 0.0002214
inclination: 51.6435°
perigee height: 401 km
apogee height: 404 km
right ascension of ascending node: 216.7349°
argument of perigee: 83.5560°
revolutions per day: 15.54887763
mean anomaly at epoch: 59.4543°
orbit number at epoch: 1126

The dashed part of the orbit path shows where the satellite is in the earth's shadow,  

DLR